Location: Haliburton Scout Reserve
(45.0900°N, 78.3200°W)
Time: 08:49:27
(UTC-04:00)

YUBILEINY - Pass Details

Date: 07 December 2023
Orbit: 1477 x 1509 km, 82.5° (Epoch: 24 June)

Event Time Altitude Azimuth Distance (km) Brightness Sun altitude
Rises 20:35:21 0° 349° (N) 4,624 ? -42.1°
Reaches altitude 10° 20:38:14 10° 348° (NNW) 3,637 ? -42.6°
Enters shadow 20:42:22 32° 344° (NNW) 2,320 ? -43.3°
